Showing default

QIANFAN-32, 61565

Orbit data source: Space-Track

QIANFAN-32, 61565 is a Chinese payload satellite in LEO that was launched on Tue, 15 Oct 2024 UTC via a CHANG ZHENG 6A launch vehicle from the Taiyaun Space Center, China (TSC). Payloads include a variety of satellites, spacecraft, and rockets equipped with specific instruments for various scientific and technological missions. These include communications satellites like Starlink; space stations such as the ISS; scientific satellites like the Hubble; Earth observation satellites from companies like Planet Labs, Umbra, and HawkEye 360; GPS; miniature CubeSats for education and research; and military/defense satellites.

Loading next visibility...
QIANFAN-32 details
Identifier
61565, 2024-185P
Orbit
LEO
Last TLE update7 hours ago
Origin
Flag of CNYUANX (CN / PRC)
ManufacturerGESIH/SECM
MissionOperational Commercial Communications
Bus & MotorQIANFAN, Unknown motor
Mass300 kg wet, ~300 kg dry
Launch date (UTC)
2024-10-15 (4 months ago)
Launch vehicle
CHANG ZHENG 6A
Launch site
Taiyaun Space Center, China (TSC)
Object type
Payload
Rocket body
Debris
Shape & HBRBox + 1 Pan, 10 m
Radar Cross Section13.200 m², Large (>1 m²)

Expand to show TLE details & history

TLE from 7 hours ago
0 QIANFAN-32
1 61565U 24185P   25047.18055679  .00000794  00000-0  50360-3 0  9999
2 61565  88.9858 112.1488 0009377 180.5403 179.5769 14.02886153 27374
Epoch: 2025-02-16T04:20Z
Definitive object data (Epoch: 2025-02-16T04:20:00.106Z)
Latitude-0.00003°
Longitude-99.26895°
Altitude893.657 km
Speed7.402 km/s
True Right ascension07h 28m 35s
True Declination0° 00' 00"
Sunlit
Object was in full shadow at TLE epoch
Visualization TLE readout
Latitude80.34712°
Longitude-93.35981°
Altitude898.394 km
Speed7.409 km/s
Apparent Right ascension03h 14m 16s
Apparent Declination30° 41' 17"
Sunlit
Object is in daylight
Visualization observer readout
Local Sidereal Time14:20:08
Azimuth347.767° N
Elevation-18.288°
Doppler factor1
Orbital elements
Apogee altitude887.601 km
Perigee altitude873.987 km
Semi-major axis7,258.931 km
Eccentricity0.0009377
Inclination88.9858°
RAAN112.1488°
Arg. of periapsis180.5403°
True anomaly179.57769°
Mean anomaly179.5769°
Eccentric anomaly179.5773°
Mean motion3.50941 °/min
BSTAR0.0005036
Orbital period102.58 mins
Loading maneuver chart data...
Loading historical data...
Loading historical data...
Loading historical data...
Loading historical data...
Loading historical data...
Loading historical data...
Loading historical data...

QIANFAN-32 Visibility forecast

Observer location: undefined°, undefined

Span
Click to sort rows by Start time (UTC) header in descending order
Start Az.
Max El. time (UTC)
Max El. Az.
Max El.
End time (UTC)
End Az.
6 mins2025-02-16 15:12:45.902Z42.977° NE2025-02-16 15:15:45.902Z77.599° E16.67°2025-02-16 15:18:45.902Z112.626° SE
9 mins2025-02-16 16:54:45.902Z349.046° N2025-02-16 16:58:45.902Z279.349° WNW40.632°2025-02-16 17:03:45.902Z198.7° SSW
10 mins2025-02-17 04:24:45.902Z166.835° S2025-02-17 04:29:45.902Z55.981° ENE42.713°2025-02-17 04:34:45.902Z4.297° NNE
4 mins2025-02-17 06:10:45.902Z263.021° W2025-02-17 06:12:45.902Z286.051° WNW14.342°2025-02-17 06:14:45.902Z308.327° NW
|